Vertical_Velocity
1 2 0 -1 -1 -1 -2 -2 -3 -3 -2 -3 -1 -0 -3 0 -0 -2 -1 -1 -1 1 -2 -0 -3 -3 -3 -3 -2 -2 -2 -2 -2 -2 -3 -4 -3 -2 -4 -2 -1 -0 -1 -1 -2
0 0 0 -0 -2 -2 -0 -1 -2 -2 -1 -2 -3 -3 -2 -3 0 -0 -1 -2 -2 -0 1 -0 -1 -2 -1 -2 -0 -2 -1 -2 -2 -3 -3 -1 -2 -2 -2 -3 -7 -5 -3 -3 -2
-1 -1 -0 1 1 -0 -0 -2 -3 -2 -2 -1 -2 -1 -2 -1 -1 -2 -0 -1 -1 -2 -3 -1 -2 -1 -2 -1 -2 -2 -3 -4 -1 1 -1 -3 -3 0 -2 -2 -3 -2 -1 -3 -4
-3 -1 0 -1 -1 -1 -0 -1 -2 -2 -1 -2 -0 -3 -1 -2 -0 -1 -4 -2 -1 -1 1 -1 -0 -0 -1 -1 1 1 -1 -2 -4 -0 -1 -1 -2 -2 2 1 -1 -3 -4 -4 -2
-1 -1 -1 -1 -1 -1 -1 -2 -1 -1 -3 -3 -2 -1 -2 -1 -3 1 -1 -3 -2 -0 -0 -1 -1 -3 -1 -1 -1 -2 0 -0 0 0 -3 -1 -3 -3 -3 -2 0 3 -2 -1 -1
-2 -4 -2 -2 -3 -3 -2 -2 -3 -2 -3 -3 -2 1 1 -2 1 -3 -0 -2 -4 -2 0 -1 -2 1 -0 -2 -3 -0 -2 -1 -3 -2 0 -0 -1 2 -0 -1 -1 -4 -0 -2 -2
-0 0 -1 -2 -2 -2 -0 -1 -1 -2 -2 -2 -0 -1 -1 -1 -2 -0 -2 -5 -3 -1 -3 1 2 -2 -3 -2 -1 -3 -3 -3 -1 1 1 -2 -8 2 2 4 2 -1 -1 -2 -1
-2 -2 -2 -2 -0 -0 -2 -1 -1 -0 0 -0 -2 -3 -3 -1 -1 -3 -0 -1 -7 -3 -4 -7 -5 -4 -4 -4 -5 -3 0 -1 0 -4 -0 5 5 -3 2 1 3 3 2 -1 -5
3 -1 -1 -3 -1 -3 -1 0 0 -2 -1 -1 -2 -5 -2 -1 -1 -3 -2 -2 1 -4 -5 -4 -6 -6 -1 1 -2 -1 -2 1 -8 -5 0 -2 4 -6 -5 2 -5 -6 -3 -1 0
0 0 -1 -1 -4 -1 -2 -1 -1 1 0 -0 -0 -4 1 -2 1 1 1 -1 -1 -2 -1 -0 -2 1 1 -2 -3 -1 0 -0 -3 1 -0 -4 12 -3 -11 0 0 -3 1 1 -1
-1 -3 -2 3 1 0 -2 0 -2 -0 0 -0 -2 -1 -2 0 0 -1 0 -1 0 -1 -6 -4 -4 -4 -4 -3 -2 -3 -4 -4 -8 -7 6 -11 1 12 -4 -6 -1 -1 1 6 13
-1 -0 -1 -1 -2 -1 2 -2 -4 -3 2 -2 -2 0 1 1 -3 -1 -0 -0 2 -0 2 -1 -3 -1 -5 -5 -6 -6 -5 -7 0 -2 -3 -0 6 1 -1 -2 -7 -2 -3 2 2
1 -2 -0 3 3 2 -2 0 -1 -0 -2 2 2 -0 1 2 -0 -1 -1 -3 -1 -0 -1 -3 -4 -4 -3 -5 -5 -7 -6 -4 -4 2 -4 -16 9 6 1 3 0 -1 0 -6 -6
1 -0 1 -1 -1 2 4 0 1 0 -1 -3 -5 -5 -0 -0 2 2 1 1 1 1 -0 -0 -1 -2 -1 -5 -5 -2 -4 -5 -5 -8 -5 9 -24 15 0 4 5 1 0 1 -0
1 -1 -1 1 2 -0 2 1 3 4 -5 -2 3 3 2 -2 -2 3 -3 -2 1 -0 -1 -1 -1 -4 -2 -4 -3 -7 -6 -5 -5 -6 -7 5 -10 6 1 1 2 4 -3 3 3
-1 1 -1 -1 -1 1 2 3 1 -0 -2 -3 -6 -2 -1 2 4 1 0 -2 -5 0 6 1 -1 -3 -2 -1 -2 -6 -5 -5 -5 -2 -4 -3 -6 21 -2 -1 -1 -3 1 -4 -0
-1 -3 5 -0 1 -2 1 -1 -6 2 3 4 0 -1 -1 -3 -2 -3 2 1 -5 -11 6 -2 -3 -5 -3 -1 -2 -4 -7 -12 -22 -9 -1 -0 -10 19 -2 -0 1 3 2 -2 -2
-2 -4 3 -1 2 2 2 1 -2 8 4 -1 -0 -1 0 -0 2 0 -6 -1 -0 -5 -11 -3 2 5 7 6 2 0 -1 0 -27 -11 -6 2 -12 -0 -3 -4 -3 -1 -2 3 1
2 -4 -8 -4 3 -1 -1 -11 3 12 8 2 -2 -9 3 1 -12 -5 1 -2 -0 1 -4 -17 -2 -3 -5 -1 3 -7 1 1 -7 -4 -20 -4 4 10 -3 -9 -3 -3 -4 -4 -5
-4 -1 3 7 1 -7 -12 -3 -3 8 -1 -1 -1 -1 -3 3 -4 -6 3 6 -0 9 1 -6 -26 2 -4 -1 6 -3 -7 -8 -2 -16 -22 -2 1 3 -2 -1 1 -6 -1 -2 -1
6 -7 5 10 7 -5 -14 -4 -5 6 7 2 3 -7 -1 -2 -2 -0 -6 7 1 3 -4 -2 -3 3 2 4 4 -3 1 6 2 -2 -10 -10 7 -3 2 0 -4 -3 -6 -3 -4
-3 -12 11 8 -3 -2 -2 9 8 1 4 -4 -2 -3 -1 1 -6 -8 -7 3 3 -1 -9 2 -22 -2 1 0 3 2 -3 4 -7 0 1 -15 -16 -5 4 -4 -8 -3 -5 -4 0
-3 -13 -5 7 -17 3 -5 -6 -7 2 5 -10 -6 4 4 -2 -19 3 -2 7 1 -5 -14 5 -26 -9 0 2 -11 -11 5 4 -6 -2 11 -5 -6 -2 3 -1 -2 -5 -3 -1 -1
5 -3 3 -4 -1 -1 -0 -7 -7 7 -1 6 -4 -4 5 -0 4 -20 -3 -4 6 4 -1 -4 -12 -2 -1 5 5 1 11 -7 -8 -11 -5 8 -17 16 0 -10 -6 -5 2 -5 2
-10 -12 -5 -11 1 10 -0 -16 1 -2 4 7 -9 11 5 -9 1 0 -1 -6 1 -1 4 -5 -15 3 2 -4 -6 2 8 4 -8 9 -19 10 -18 0 6 -6 1 -5 -5 -1 3
25 5 -2 1 1 8 -2 6 2 15 7 1 -2 12 0 -7 0 -2 -7 0 4 0 -3 10 -16 -6 -6 4 -8 -9 6 22 9 4 -15 -0 -15 22 -0 -12 1 -5 -3 2 1
22 26 8 -7 -4 -3 11 11 10 5 1 7 3 -2 -3 18 -6 -0 -5 0 -3 1 8 6 5 3 -16 2 -8 -40 17 19 9 7 5 -6 5 -4 7 -12 -3 2 -3 -2 -4
Height
5867 5866 5867 5866 5866 5865 5864 5864 5863 5862 5860 5858 5856 5854 5852 5850 5849 5847 5845 5844 5842 5840 5839 5836 5835 5835 5834 5833 5832 5831 5830 5828 5827 5825 5824 5822 5820 5819 5817 5814 5812 5810 5807 5805 5801
5865 5864 5863 5863 5863 5862 5861 5860 5860 5859 5858 5856 5854 5853 5851 5849 5848 5846 5844 5842 5841 5839 5838 5837 5836 5834 5833 5833 5831 5829 5827 5826 5825 5823 5821 5819 5817 5814 5812 5810 5808 5805 5802 5799 5795
5861 5861 5861 5860 5859 5858 5858 5857 5856 5855 5854 5853 5852 5850 5849 5847 5847 5845 5843 5841 5839 5839 5837 5836 5835 5834 5832 5831 5829 5827 5825 5823 5822 5820 5818 5815 5813 5812 5809 5807 5805 5802 5799 5798 5794
5858 5858 5858 5857 5856 5855 5854 5854 5852 5851 5850 5850 5849 5848 5846 5844 5845 5842 5841 5839 5838 5837 5836 5835 5834 5833 5831 5829 5827 5826 5824 5821 5819 5817 5815 5813 5812 5809 5804 5804 5800 5798 5796 5794 5792
5854 5855 5855 5854 5853 5852 5851 5851 5849 5848 5847 5846 5846 5845 5844 5843 5841 5839 5838 5837 5836 5834 5832 5832 5831 5830 5828 5826 5825 5822 5820 5818 5816 5814 5811 5810 5807 5805 5802 5800 5798 5795 5792 5789 5787
5851 5851 5851 5850 5850 5849 5848 5848 5847 5846 5845 5844 5843 5842 5842 5842 5839 5838 5837 5836 5835 5832 5831 5829 5828 5826 5825 5824 5822 5820 5818 5816 5813 5810 5808 5806 5802 5800 5797 5794 5792 5789 5786 5784 5781
5847 5848 5847 5846 5846 5846 5845 5845 5844 5844 5842 5842 5840 5840 5840 5839 5837 5835 5834 5833 5833 5830 5829 5827 5825 5824 5822 5821 5819 5817 5815 5810 5806 5805 5804 5803 5799 5794 5790 5788 5784 5781 5779 5777 5775
5843 5843 5843 5842 5842 5841 5841 5841 5841 5840 5840 5838 5837 5837 5836 5835 5835 5833 5831 5829 5829 5828 5826 5825 5823 5821 5819 5817 5815 5812 5810 5806 5803 5800 5797 5794 5793 5785 5783 5780 5778 5776 5773 5771 5770
5838 5837 5838 5837 5836 5836 5836 5836 5836 5836 5836 5835 5834 5833 5832 5831 5831 5830 5828 5826 5824 5825 5824 5821 5819 5817 5814 5811 5810 5806 5803 5800 5798 5794 5792 5789 5789 5783 5778 5775 5774 5771 5768 5766 5764
5831 5832 5831 5832 5831 5830 5830 5830 5830 5830 5831 5830 5829 5830 5828 5827 5826 5825 5823 5823 5821 5820 5819 5818 5815 5813 5811 5808 5806 5803 5801 5798 5794 5792 5787 5783 5783 5780 5774 5772 5769 5765 5762 5759 5756
5823 5823 5824 5825 5825 5824 5824 5825 5825 5825 5824 5825 5825 5823 5822 5821 5820 5820 5818 5816 5815 5815 5814 5812 5811 5808 5806 5803 5801 5798 5796 5792 5789 5786 5783 5779 5777 5772 5767 5763 5760 5757 5753 5750 5746
5815 5815 5815 5816 5816 5816 5818 5818 5818 5818 5818 5817 5818 5818 5818 5816 5815 5814 5813 5811 5809 5808 5808 5807 5805 5803 5800 5798 5795 5793 5790 5786 5783 5779 5776 5772 5768 5763 5758 5756 5752 5748 5744 5741 5738
5809 5807 5808 5807 5808 5808 5810 5810 5811 5811 5812 5814 5813 5813 5813 5811 5810 5809 5808 5805 5803 5802 5800 5799 5798 5795 5794 5791 5789 5785 5783 5780 5777 5772 5768 5764 5761 5756 5751 5746 5742 5740 5737 5733 5730
5803 5801 5801 5800 5801 5799 5801 5801 5802 5803 5802 5806 5806 5806 5806 5804 5804 5802 5800 5799 5797 5795 5793 5792 5790 5787 5785 5783 5781 5778 5775 5771 5767 5764 5761 5756 5753 5750 5744 5739 5735 5731 5728 5724 5720
5794 5794 5795 5794 5793 5792 5793 5793 5794 5794 5792 5795 5796 5796 5796 5796 5796 5795 5793 5792 5789 5788 5788 5785 5782 5780 5778 5774 5771 5769 5766 5762 5759 5754 5751 5748 5743 5741 5738 5732 5728 5724 5719 5715 5712
5783 5785 5786 5787 5786 5785 5784 5785 5787 5787 5784 5787 5788 5787 5786 5784 5784 5783 5783 5783 5781 5781 5779 5777 5773 5771 5768 5765 5761 5758 5755 5751 5748 5743 5740 5738 5735 5734 5730 5726 5720 5716 5712 5708 5705
5773 5774 5776 5776 5777 5776 5776 5776 5777 5775 5779 5779 5779 5778 5777 5777 5775 5772 5770 5769 5769 5767 5768 5767 5765 5761 5758 5754 5751 5749 5746 5741 5738 5735 5733 5727 5723 5726 5721 5718 5714 5708 5704 5699 5696
5759 5762 5765 5767 5765 5766 5766 5765 5761 5765 5769 5769 5769 5767 5765 5765 5763 5762 5761 5760 5758 5758 5754 5752 5751 5749 5747 5745 5741 5739 5735 5730 5724 5724 5722 5717 5712 5716 5711 5709 5706 5701 5696 5692 5688
5743 5747 5751 5755 5757 5755 5757 5751 5751 5754 5759 5759 5758 5757 5757 5755 5754 5751 5751 5751 5752 5749 5747 5743 5741 5737 5735 5732 5731 5729 5724 5719 5714 5712 5707 5707 5705 5704 5703 5701 5696 5691 5686 5683 5680
5731 5730 5734 5737 5741 5742 5741 5740 5740 5744 5746 5746 5746 5746 5743 5743 5744 5741 5740 5739 5737 5735 5735 5734 5732 5729 5726 5723 5722 5717 5714 5708 5703 5697 5694 5695 5692 5695 5693 5689 5685 5680 5675 5672 5670
5718 5718 5719 5722 5724 5724 5723 5725 5727 5729 5732 5730 5731 5729 5730 5729 5728 5728 5726 5726 5723 5722 5720 5719 5717 5718 5714 5712 5707 5706 5700 5695 5690 5685 5682 5677 5681 5684 5682 5678 5673 5668 5664 5662 5658
5699 5703 5707 5708 5709 5708 5707 5710 5715 5713 5714 5717 5717 5715 5713 5712 5714 5713 5712 5710 5709 5709 5706 5703 5699 5699 5699 5695 5694 5692 5686 5682 5677 5676 5667 5666 5671 5674 5668 5664 5660 5656 5652 5650 5647
5680 5683 5687 5689 5688 5690 5693 5694 5695 5696 5697 5697 5695 5699 5701 5699 5697 5698 5696 5696 5694 5693 5689 5688 5683 5683 5681 5679 5678 5676 5673 5667 5664 5664 5659 5657 5658 5660 5656 5652 5646 5643 5640 5637 5636
5664 5667 5668 5667 5669 5675 5677 5679 5680 5680 5679 5678 5679 5680 5681 5679 5678 5678 5677 5678 5679 5676 5673 5669 5667 5668 5668 5666 5662 5660 5654 5649 5648 5646 5653 5644 5650 5648 5644 5637 5633 5631 5628 5626 5624
5641 5645 5650 5651 5652 5654 5656 5662 5663 5662 5660 5661 5662 5664 5662 5660 5660 5660 5661 5660 5661 5659 5656 5650 5649 5650 5651 5651 5648 5648 5641 5633 5630 5633 5630 5641 5629 5636 5631 5624 5620 5618 5616 5612 5611
5625 5626 5628 5633 5635 5635 5638 5645 5643 5645 5645 5644 5642 5643 5641 5640 5640 5641 5641 5641 5643 5642 5638 5636 5631 5632 5634 5634 5633 5630 5629 5620 5619 5619 5615 5617 5614 5619 5612 5610 5607 5605 5602 5601 5599
5603 5605 5600 5606 5612 5614 5621 5625 5626 5625 5622 5623 5623 5621 5623 5625 5620 5620 5620 5624 5625 5622 5621 5620 5616 5615 5614 5614 5613 5609 5619 5612 5607 5609 5604 5601 5601 5603 5600 5594 5594 5592 5590 5589 5587